EHI
4 2 1 0 0 0 0 0 0 0 0 1 1 2 2 1 0 0 0 0 0 0 1 6 15 20 21 24 26 25 21 17 14 10 4 1 0 0 0 0 0 0 0 0 0 0 0 0 0
1 1 0 0 0 0 0 0 0 0 0 1 3 4 4 3 1 0 0 0 0 0 2 9 19 24 24 27 28 24 18 15 13 8 3 0 0 0 0 0 0 0 0 0 0 0 0 0 0
0 0 0 0 0 0 0 0 0 0 0 1 3 4 5 3 1 0 0 1 2 2 2 14 28 32 30 30 28 22 15 11 9 5 2 1 0 1 1 1 0 0 0 0 0 0 0 0 0
0 0 0 0 0 0 0 0 0 0 0 1 3 4 3 2 1 2 3 6 9 6 5 18 35 39 34 31 26 20 13 8 6 4 3 2 2 2 2 1 0 0 0 0 0 0 0 0 0
0 0 0 0 0 0 0 0 0 0 1 3 5 5 3 3 5 9 11 13 16 14 11 22 39 42 36 31 25 19 11 6 4 3 3 3 3 3 2 1 0 0 0 0 0 0 0 0 0
0 0 0 0 0 0 0 0 0 2 3 6 8 7 4 5 12 18 19 19 21 25 23 26 36 37 33 30 25 17 9 5 3 3 3 3 2 2 2 1 0 0 0 0 0 0 0 0 0
0 0 0 0 0 0 0 0 1 3 5 8 12 10 6 9 18 23 25 27 30 34 35 31 29 27 25 24 21 16 9 4 3 3 2 1 1 1 1 0 0 0 0 0 0 0 0 0 0
0 0 0 0 0 0 0 0 1 4 7 9 11 9 12 23 33 36 37 38 38 38 37 34 27 21 17 15 14 13 8 4 3 3 1 0 0 0 0 0 0 0 0 0 0 0 0 0 0
0 0 0 0 0 0 0 0 1 4 7 9 9 14 29 50 59 57 56 51 43 36 31 27 25 20 15 12 10 9 6 4 3 3 1 0 0 0 0 0 1 1 0 0 0 0 0 0 0
0 0 0 0 0 0 0 0 2 5 8 11 19 36 58 73 74 70 65 57 47 38 28 21 20 21 18 14 10 8 5 3 3 2 1 0 0 0 0 0 1 1 0 0 0 0 0 0 0
0 0 0 0 0 0 0 0 3 6 8 16 38 64 80 81 74 67 59 50 45 41 31 22 22 23 19 15 12 9 5 2 2 1 1 0 0 0 0 0 0 0 0 0 0 0 0 0 0
0 0 0 0 0 0 0 0 2 5 6 20 52 79 86 80 67 57 49 43 42 43 37 27 26 26 20 16 14 11 5 2 0 0 0 0 0 0 0 0 0 0 0 0 0 0 0 0 0
0 0 0 0 0 0 0 0 1 3 8 29 61 81 83 73 59 50 45 43 43 43 39 34 31 29 24 19 18 14 7 2 0 0 0 0 0 0 0 0 0 0 0 0 0 0 0 0 0
0 0 0 0 0 0 0 0 0 4 16 42 68 78 75 66 57 52 48 44 41 39 38 37 34 29 26 23 22 18 10 5 2 0 0 0 0 0 0 0 0 0 0 0 0 0 0 0 0
0 0 0 0 0 0 0 0 1 8 26 49 67 73 67 60 55 53 49 42 35 33 34 36 32 27 24 22 20 17 13 9 4 1 0 0 0 0 0 0 0 0 0 0 0 0 0 0 0
0 0 0 0 0 0 0 0 1 12 29 45 58 64 60 53 49 47 44 39 33 30 32 34 31 25 21 17 14 12 11 10 7 2 0 0 0 0 0 0 0 0 0 0 0 0 0 0 0
0 0 0 0 0 0 0 0 2 12 26 38 46 52 51 45 39 37 37 36 34 30 31 33 31 25 17 12 9 8 7 7 6 3 1 0 0 0 0 0 0 0 0 0 0 0 0 0 0
0 0 0 0 0 0 0 0 2 9 20 29 36 39 39 36 33 31 33 35 34 31 30 30 27 22 16 11 8 6 5 5 5 4 2 1 0 0 0 0 0 0 0 0 0 0 0 0 0
0 0 0 0 0 0 0 0 1 7 14 22 28 30 31 31 31 32 35 37 37 34 31 27 23 20 18 15 11 7 4 4 4 4 2 1 0 0 0 0 0 0 0 0 0 0 0 0 0
0 0 0 0 0 0 0 0 1 4 9 14 20 23 26 28 31 34 38 41 42 40 34 29 25 22 20 17 13 7 4 4 4 4 2 1 0 0 0 0 0 0 0 0 0 0 0 0 0
0 0 0 0 0 0 0 0 0 1 3 7 11 15 20 25 28 32 36 39 42 41 37 32 28 26 21 17 12 8 5 5 4 3 2 1 0 0 0 0 0 0 0 0 0 0 0 0 0
0 0 0 0 0 0 0 0 0 0 0 2 5 10 16 20 23 28 32 34 35 36 35 33 31 27 20 15 12 10 9 7 4 2 1 1 0 0 0 0 0 0 0 0 0 0 0 0 0
0 0 0 0 0 0 0 0 0 0 0 1 3 7 12 17 21 25 28 29 29 30 31 32 31 25 18 13 12 12 12 9 5 2 1 0 0 0 0 0 0 0 0 0 0 0 0 0 0
0 0 0 0 0 0 0 0 0 0 0 0 2 5 9 14 19 22 23 23 23 25 28 30 27 22 17 13 11 12 12 10 6 3 1 0 0 0 0 0 0 0 0 0 0 0 0 0 0
0 0 0 0 0 0 0 0 0 0 0 0 1 3 7 12 16 18 18 17 19 21 26 27 24 19 17 15 12 10 10 9 7 5 2 0 0 0 0 0 0 0 0 0 0 0 0 0 0
0 0 0 0 0 0 0 0 0 0 0 0 0 2 5 9 11 13 13 13 15 19 23 25 23 20 19 17 14 11 9 8 6 5 3 1 0 0 0 0 0 0 0 0 0 0 0 0 0
0 0 0 0 0 0 0 0 0 0 0 0 0 1 3 5 6 7 8 10 12 16 20 22 22 21 21 20 17 13 10 8 6 5 3 1 0 0 0 0 0 0 0 0 0 0 0 0 0
0 0 0 0 0 0 0 0 0 0 0 0 0 0 1 2 2 3 5 7 9 12 15 18 20 19 19 19 17 14 12 11 8 6 3 1 0 0 0 0 0 0 0 0 0 0 0 0 0
0 0 0 0 0 0 0 0 0 0 0 0 0 0 0 0 0 0 2 4 6 8 10 12 14 14 14 13 12 12 12 12 10 7 4 1 0 0 0 0 0 0 0 0 0 0 0 0 0
0 0 0 0 0 0 0 0 0 0 0 1 1 1 0 0 0 0 0 2 5 5 7 8 10 11 11 10 9 9 11 12 11 8 5 2 0 0 0 1 1 1 0 0 0 0 0 0 0
Wind_Speed
5 3 2 1 3 4 2 2 1 1 0 1 4 4 5 4 3 2 4 11 16 14 12 15 17 17 17 16 16 16 16 16 16 15 15 15 14 14 13 13 13 13 14 14 14 14 14 15 15
3 3 1 2 5 3 2 2 0 0 2 4 4 4 5 3 4 7 7 10 16 14 10 12 18 17 17 16 16 16 16 15 15 15 14 14 14 13 13 13 13 13 13 14 14 14 14 14 14
3 2 2 4 3 2 2 2 1 1 2 2 3 4 4 4 7 7 7 14 14 12 9 13 19 18 17 16 16 15 15 15 14 14 14 13 13 13 13 13 13 13 13 13 14 14 14 13 13
2 2 4 4 0 3 3 3 2 2 1 3 4 5 4 3 6 8 14 16 15 11 9 12 19 18 17 16 16 15 15 14 14 13 13 13 12 12 13 12 13 13 13 13 13 13 13 13 12
3 4 5 3 3 4 3 3 4 2 1 2 4 4 3 4 9 15 16 16 14 10 8 11 18 18 17 16 16 15 14 14 13 13 12 12 12 12 12 12 12 12 13 13 13 12 12 11 11
4 4 4 1 4 4 2 4 3 2 2 3 4 4 2 3 11 15 14 13 12 12 9 10 18 18 17 16 16 15 14 14 13 13 12 12 12 12 11 11 12 12 12 12 12 11 11 10 9
4 4 2 1 3 4 1 3 4 4 3 3 5 5 3 5 8 12 11 11 10 9 8 7 9 13 16 16 16 15 14 14 13 13 12 12 12 11 11 11 11 11 11 11 11 10 10 9 8
4 4 1 1 2 3 1 2 2 3 2 4 5 7 7 8 11 11 10 9 9 8 7 6 7 7 7 9 15 15 14 14 13 13 12 12 12 11 11 9 10 11 11 10 10 10 9 8 8
3 4 1 3 3 3 0 1 1 2 4 2 2 4 7 17 16 14 11 9 9 10 6 6 6 6 6 6 11 12 13 13 12 11 12 10 5 5 6 8 9 10 10 10 9 9 8 7 6
4 3 6 5 4 3 2 2 4 3 2 1 3 6 15 18 17 17 16 15 13 12 9 7 7 7 6 7 5 4 5 5 5 4 5 4 4 3 5 6 9 9 9 8 8 7 6 4 3
5 6 5 5 5 3 3 2 3 7 5 8 9 14 19 18 16 16 16 15 14 13 11 9 8 7 6 4 4 3 2 3 4 5 5 4 3 2 3 2 3 3 5 3 4 3 3 3 2
4 6 5 5 3 2 4 3 4 7 9 6 12 18 20 19 18 17 16 14 11 12 12 10 8 7 6 4 4 4 3 3 3 4 6 4 3 2 2 2 2 2 2 2 2 2 2 2 2
4 4 4 6 5 4 3 4 4 6 3 7 14 17 18 17 14 11 11 11 11 12 12 12 10 9 7 5 4 5 4 4 4 4 5 5 4 3 3 2 2 2 2 2 2 2 2 2 2
3 4 6 6 3 2 3 2 2 4 5 11 15 15 15 15 13 10 10 12 12 13 12 12 12 10 8 6 5 5 5 4 4 4 5 5 4 4 3 3 2 2 2 2 2 2 2 1 1
2 3 6 4 2 1 3 1 4 3 9 11 13 13 12 12 12 12 13 12 12 11 11 11 11 10 9 8 7 6 5 5 5 4 5 5 5 4 4 3 3 2 2 2 2 2 2 2 1
2 3 3 6 3 1 4 5 5 4 10 10 11 11 11 10 11 10 10 9 9 9 10 11 11 11 10 8 6 5 5 5 5 4 5 6 6 5 4 3 3 3 3 2 2 2 2 2 2
4 1 2 6 3 1 1 5 4 4 9 9 10 10 10 9 9 9 10 9 9 9 9 10 10 11 10 8 6 5 5 5 4 4 4 5 6 6 5 4 3 4 3 3 3 2 2 2 2
2 1 2 4 4 2 1 4 4 3 7 7 7 7 8 10 11 9 9 9 9 9 9 9 9 9 8 6 5 4 4 4 4 5 5 6 6 7 5 4 4 4 3 3 3 3 2 2 2
3 2 4 6 4 2 2 4 4 2 4 5 6 7 9 8 6 6 7 8 9 9 10 10 9 8 7 6 6 6 5 4 4 5 7 7 6 7 6 4 4 4 4 4 5 3 3 2 2
3 3 5 6 2 0 2 4 3 1 4 5 7 8 8 6 6 7 8 9 10 10 10 9 10 10 9 7 6 4 4 4 4 4 5 7 8 8 7 6 5 5 4 4 4 3 3 2 2
4 5 5 5 4 3 2 5 3 2 0 1 3 4 5 8 8 8 8 8 8 9 10 10 10 10 10 8 5 4 4 3 4 5 5 6 8 8 6 7 6 6 5 5 5 5 5 3 2
5 7 6 3 1 3 1 2 6 2 2 3 3 3 5 5 6 7 8 8 8 8 8 7 8 9 10 10 9 9 8 7 6 5 5 5 7 7 7 7 7 6 5 5 5 5 3 4 3
7 3 3 2 3 0 2 2 8 3 3 5 5 4 4 4 5 7 8 8 6 6 7 7 7 8 8 9 10 9 7 5 4 5 6 6 6 6 7 7 7 6 5 6 6 5 4 3 4
4 5 6 5 5 0 2 3 7 4 6 5 4 4 4 4 4 5 5 5 5 6 6 6 7 7 7 8 8 9 8 7 7 7 7 6 4 4 6 7 6 6 5 6 6 6 6 4 4
5 6 4 4 3 5 2 2 9 7 5 5 5 4 4 4 5 6 6 6 6 6 6 7 7 7 8 9 9 9 8 8 9 8 8 6 5 4 6 6 6 6 5 6 5 5 5 5 5
6 10 8 5 5 4 2 4 8 4 3 3 3 3 3 3 4 6 6 6 6 7 7 7 8 7 7 8 8 7 8 6 6 7 7 7 6 5 6 6 6 6 6 6 5 4 5 5 5
7 5 7 7 2 0 4 6 9 2 2 1 1 1 3 4 5 5 6 6 6 7 8 8 8 7 7 7 6 6 7 6 6 6 6 5 5 5 6 7 7 7 7 7 6 4 5 5 5
7 9 6 7 6 2 3 4 5 5 4 2 1 2 2 4 4 5 6 6 6 6 5 6 6 6 6 6 6 6 6 6 6 5 6 6 6 6 7 7 7 7 7 6 6 5 4 5 4
5 5 6 5 5 7 3 7 6 6 4 3 3 3 3 4 5 5 5 5 5 5 5 5 5 4 5 5 5 5 5 6 5 5 6 6 6 6 7 7 7 7 7 6 5 5 6 6 5
5 7 8 7 4 4 5 8 3 3 2 2 2 1 2 3 3 4 4 4 4 5 5 4 4 4 4 4 4 5 5 5 6 5 5 6 6 6 6 6 6 6 6 6 7 7 7 6 6
Wind_Direction
185 160 150 131 59 50 15 302 230 100 106 140 133 130 131 130 171 180 126 138 135 143 150 150 147 142 137 133 131 129 128 128 127 127 127 127 127 127 125 123 122 120 117 115 114 113 113 113 113
140 153 144 58 73 56 317 285 178 199 150 112 102 98 93 85 82 111 131 142 140 143 146 149 148 145 141 137 135 133 132 131 130 130 130 130 130 130 128 126 124 122 120 118 117 116 115 116 115
149 162 88 66 83 161 247 266 161 75 123 120 97 72 91 125 130 138 147 142 137 142 144 154 151 148 145 142 139 138 136 135 134 133 133 132 132 132 130 128 127 125 123 122 120 118 118 119 118
123 59 56 64 11 233 224 218 168 138 45 56 97 82 71 98 143 141 140 143 140 143 146 158 153 151 149 146 143 142 140 139 139 138 137 136 135 134 131 130 129 127 125 124 122 120 120 122 123
66 74 54 26 289 262 230 210 174 158 112 73 98 97 58 22 115 133 141 146 146 144 149 158 156 155 153 150 148 147 145 144 143 142 141 140 139 135 133 132 130 128 127 126 125 124 125 126 126
58 65 70 336 294 288 241 187 160 156 136 111 105 96 52 105 130 141 143 144 147 148 150 157 160 158 157 155 153 153 151 150 148 146 146 144 141 137 136 136 134 133 132 130 129 128 127 124 125
104 96 135 250 293 308 253 158 158 157 152 155 130 111 111 142 142 139 137 136 141 147 148 154 159 161 162 160 158 157 156 156 154 151 150 149 145 143 142 141 139 138 136 134 133 131 129 125 125
127 103 72 275 265 288 291 114 134 146 152 124 126 146 173 168 142 131 127 131 141 148 152 152 151 151 155 160 164 163 162 162 159 157 156 154 152 148 146 143 145 143 141 139 138 135 132 128 128
102 78 225 234 218 262 271 95 102 124 121 129 136 161 160 143 141 138 138 142 155 161 160 153 149 146 146 155 170 166 167 168 163 162 162 152 131 132 141 150 152 148 147 144 142 140 135 127 127
105 148 227 225 213 238 256 191 171 131 139 154 86 97 130 144 152 156 161 166 170 173 172 164 159 154 154 167 160 152 158 157 149 142 140 121 118 134 143 163 160 155 152 149 146 140 128 107 99
165 202 236 249 236 239 247 223 167 149 205 208 178 152 150 157 163 168 173 176 176 172 174 174 167 162 162 156 147 142 137 138 138 138 130 124 119 125 124 128 148 144 144 122 119 109 97 102 106
195 241 237 265 260 229 219 196 178 191 219 198 161 154 158 168 175 178 178 178 173 172 177 173 170 168 168 157 155 149 149 149 149 146 142 137 135 134 133 127 119 106 105 113 103 104 105 113 124
225 264 267 263 278 240 216 212 205 230 230 130 139 153 168 175 181 182 178 175 174 178 178 174 173 178 172 165 167 165 163 162 156 152 154 154 155 159 154 149 141 137 129 132 131 130 131 131 142
245 266 288 289 276 231 183 234 185 244 139 136 150 164 175 178 178 176 178 180 182 184 182 177 178 180 175 176 175 169 168 163 159 162 167 166 165 165 164 165 167 168 162 154 151 152 140 138 148
292 310 322 312 297 247 129 288 235 204 142 148 163 170 174 180 182 188 189 188 184 184 180 180 181 180 183 182 181 174 171 167 170 172 172 174 173 171 172 175 183 185 169 153 133 132 122 136 142
19 24 332 308 335 339 132 253 266 160 151 162 171 174 176 186 191 194 192 190 183 177 179 180 186 186 188 187 182 176 175 172 175 176 178 179 179 176 176 183 192 179 161 152 146 140 131 136 142
27 31 290 307 332 27 135 257 282 167 161 174 178 180 182 189 197 198 195 188 181 178 180 181 187 187 189 187 181 178 171 173 174 179 182 182 184 182 183 189 188 168 160 162 167 140 142 151 153
222 244 294 289 307 350 297 266 280 189 173 182 181 181 188 199 207 197 193 186 177 175 178 186 191 188 182 175 170 168 172 177 177 183 185 182 185 185 181 184 179 168 164 165 160 143 125 127 142
176 221 276 273 284 316 288 284 290 209 182 190 194 194 199 206 199 186 184 176 178 178 177 183 188 189 177 175 182 183 190 184 189 191 184 181 185 186 182 183 174 174 177 175 166 144 133 116 121
197 258 280 295 337 298 292 303 309 203 196 197 199 206 203 188 186 182 175 176 182 182 181 186 188 184 184 184 181 177 173 180 195 197 186 183 187 188 188 180 178 178 168 162 166 148 134 125 137
217 212 240 267 339 6 17 336 327 318 6 201 205 208 199 188 190 187 184 183 183 184 185 188 187 183 183 173 166 161 157 155 174 189 190 192 189 188 184 184 179 177 173 176 177 167 151 149 148
242 223 215 245 360 303 28 291 292 296 295 253 235 219 215 204 191 188 183 184 193 191 182 181 184 183 181 171 176 178 185 189 188 184 187 183 187 186 184 181 178 177 175 174 179 170 159 148 159
215 208 194 215 166 310 356 165 283 319 274 256 242 231 223 210 193 187 188 190 189 175 171 177 180 183 178 176 182 184 191 190 169 169 176 182 186 186 184 180 178 179 179 178 175 165 167 163 163
179 78 55 50 79 183 252 172 270 249 235 257 246 229 222 206 189 179 175 164 164 160 158 164 171 178 176 180 187 189 189 180 170 176 180 182 182 183 184 179 179 179 180 179 179 173 173 174 165
121 98 39 8 22 246 263 198 249 252 239 234 242 240 227 195 180 174 170 170 169 166 165 166 174 184 184 187 193 192 191 186 186 183 183 180 183 186 188 181 177 177 182 179 171 171 176 176 174
167 142 156 183 209 267 315 237 255 263 266 258 238 224 203 187 181 181 176 173 175 174 172 174 187 190 188 192 196 189 185 186 190 186 181 184 187 186 177 175 178 179 178 178 171 172 180 178 183
139 165 159 128 138 28 286 288 301 286 309 304 245 183 181 184 175 176 173 172 176 178 178 180 187 189 190 192 189 184 182 184 184 179 179 178 175 173 171 175 178 180 179 175 170 177 183 177 187
141 142 109 122 144 212 283 278 261 276 266 266 223 202 189 179 176 177 179 181 178 178 174 172 179 187 185 183 186 184 185 185 180 176 181 180 179 175 171 178 181 179 177 175 174 175 180 181 189
110 106 109 114 147 153 213 264 234 229 228 228 235 215 192 189 188 180 179 177 169 162 162 167 171 172 174 180 184 179 179 177 175 182 187 184 180 177 179 181 179 179 178 175 175 183 186 191 197
145 154 143 146 187 165 167 259 287 222 225 216 237 238 200 197 190 175 166 158 159 162 163 165 165 171 177 174 174 178 174 169 174 183 185 181 181 180 180 178 177 181 178 175 181 191 193 195 203